Location: *
(13.2257°S, 48.7193°W)
Time: 13:45:27
(UTC+00:00)

Cosmos 1867 - Pass Details

Date: 13 February 2026
Orbit: 776 x 797 km, 65.0° (Epoch: 11 March)

Event Time Altitude Azimuth Distance (km) Brightness Sun altitude
Exits shadow 07:22:59 56° 215° (SW) 929 3.7 -26.3°
Drops below altitude 10° 07:27:42 10° 167° (SSE) 2,348 6.4 -25.2°
Sets 07:30:09 0° 163° (SSE) 3,277 7.3 -24.7°
